CW6012 Weather Reports


Display with metric or nautical units.
time (UTC)temp
F
wind
direction
speed
MPH
gust
MPH
rain 1hr
in
rain 24hr
in
rain mn
in
humidity
%
barometer
mb
20260504120315 60 101 0.0 0.0 0.00 0.00 0.00 80 1004.7
20260504120153 60 101 0.0 0.0 0.00 0.00 0.00 80 1004.7
20260504110614 61 130 0.0 0.0 0.00 0.00 0.00 77 1004.4
20260504110446 61 130 0.0 0.0 0.00 0.00 0.00 77 1004.4
20260504110322 61 130 0.0 0.0 0.00 0.00 0.00 77 1004.4
20260504110210 61 130 0.0 0.0 0.00 0.00 0.00 77 1004.4
20260504100557 60 121 0.0 1.0 0.00 0.00 0.00 78 1004.9
20260504100434 60 136 0.0 1.0 0.00 0.00 0.00 77 1004.9
20260504100305 60 135 0.0 0.0 0.00 0.00 0.00 77 1004.9
20260504100133 60 135 0.0 0.0 0.00 0.00 0.00 77 1004.9
20260504081803 61 136 0.0 0.0 0.00 0.00 0.00 74 1005.4
20260504081637 61 136 0.0 0.0 0.00 0.00 0.00 74 1005.4
20260504081514 61 136 0.0 0.0 0.00 0.00 0.00 74 1005.4
20260504081326 61 136 0.0 0.0 0.00 0.00 0.00 74 1005.5
20260504081159 61 136 0.0 0.0 0.00 0.00 0.00 74 1005.5
20260504081036 61 136 0.0 0.0 0.00 0.00 0.00 74 1005.5
20260504080909 61 136 0.0 0.0 0.00 0.00 0.00 74 1005.5
20260504080722 62 136 0.0 0.0 0.00 0.00 0.00 74 1005.5
20260504080554 62 136 0.0 0.0 0.00 0.00 0.00 74 1005.5
20260504080428 62 136 0.0 0.0 0.00 0.00 0.00 74 1005.5
20260504080300 62 136 0.0 0.0 0.00 0.00 0.00 74 1005.5
20260504080148 62 136 0.0 0.0 0.00 0.00 0.00 74 1005.5
20260504070336 63 136 0.0 0.0 0.00 0.00 0.00 72 1006.6
20260504070209 62 136 0.0 0.0 0.00 0.00 0.00 72 1006.6
20260504060215 63 136 0.0 0.0 0.00 0.00 0.00 71 1007.0
20260504060148 63 136 0.0 0.0 0.00 0.00 0.00 71 1007.0